Regional Weather Roundup
Issued by NWS Little Rock, AR

Home | Current Version | Previous Version | Text Only | Print | Product List | Glossary On
Versions: 1 2 3 4 5 6 7 8 9 10 11 12 13 14 15 16 17 18 19 20 21 22 23 24 25 26 27 28 29 30 31 32
000
ASUS44 KLZK 182005
RWRLZK

WEATHER ROUNDUP FOR ARKANSAS
NATIONAL WEATHER SERVICE LITTLE ROCK AR
200 PM CST SAT NOV 18 2017

NOTE: "FAIR" INDICATES FEW OR NO CLOUDS BELOW 12,000 FEET WITH NO
SIGNIFICANT WEATHER AND/OR OBSTRUCTIONS TO VISIBILITY.

ARZ001-003-010-029-182100-
NORTHWEST ARKANSAS

CITY           SKY/WX    TMP DP  RH WIND       PRES   REMARKS
FAYETTEVILLE   LGT RAIN  46  41  82 NW18G28   29.97R
FORT SMITH     CLOUDY    54  41  61 NW17G35   29.98R
HARRISON       CLOUDY    46  38  73 NW17G35   29.89R
BENTONVILLE    LGT RAIN  44  40  85 NW18G26   29.99R
ROGERS         LGT RAIN  44  40  85 NW21G28   29.97R
SILOAM SPGS    LGT RAIN  44  40  85 NW25G33   30.01R
HIGHFILL       LGT RAIN  45  41  86 NW23G38   29.98R
SPRINGDALE     LGT RAIN  45  41  87 NW20G29   29.97R
$$

ARZ004-005-016-182100-
NORTH CENTRAL ARKANSAS

CITY           SKY/WX    TMP DP  RH WIND       PRES   REMARKS
BATESVILLE     CLOUDY    57  45  64 NW21G33   29.71R
FLIPPIN        CLOUDY    49  38  65 NW24G37   29.84R
MTN HOME       CLOUDY    49  39  68 N17G39    29.82R
$$

ARZ040-041-182100-
WEST CENTRAL ARKANSAS

CITY           SKY/WX    TMP DP  RH WIND       PRES   REMARKS
MENA           CLOUDY    55  45  67 NW18G35   29.93R
MOUNT IDA      CLOUDY    57  45  64 NW17G26   29.86R
$$

ARZ009-017-025-026-028-182100-
NORTHEAST ARKANSAS

CITY           SKY/WX    TMP DP  RH WIND       PRES   REMARKS
CORNING        MOCLDY    59  48  67 NW32G40   29.61R
JONESBORO      MOSUNNY   64  51  62 NW28G49   29.58R
NEWPORT        PTSUNNY   60  47  61 NW40G61   29.65R
WALNUT RIDGE     N/A    N/A N/A N/A MISG        N/A
BLYTHEVILLE    CLOUDY    63  61  93 W16G28    29.49R
$$

ARZ022-023-033-042-044-182100-
CENTRAL ARKANSAS

CITY           SKY/WX    TMP DP  RH WIND       PRES   REMARKS
LITTLE ROCK    CLOUDY    64  50  60 NW25G45   29.74R
N LITTLE ROCK    N/A     61  49  66 NW14G30   29.75
JACKSONVILLE   PTSUNNY   65  50  58 W24G39    29.71R
SEARCY         PTSUNNY   62  50  64 NW22G40   29.70R
HOT SPRINGS    CLOUDY    59  47  64 NW16G31   29.83R
RUSSELLVILLE   CLOUDY    55  43  63 NW24G31   29.84R
CLINTON        CLOUDY    55  43  62 NW21G35   29.80R
$$

ARZ036-182100-
EAST ARKANSAS

CITY           SKY/WX    TMP DP  RH WIND       PRES   REMARKS
WEST MEMPHIS   TSTM      72  66  81 SW12G26   29.52F
$$

ARZ050-053-066-070-073-182100-
SOUTHWEST ARKANSAS

CITY           SKY/WX    TMP DP  RH WIND       PRES   REMARKS
ARKADELPHIA    MOCLDY    66  48  52 NW21G33   29.83R
CAMDEN         SUNNY     79  46  31 W13G30    29.74R
TEXARKANA      MOSUNNY   65  46  50 NW23G35   29.88R
EL DORADO      MOSUNNY   79  58  48 NW24G33   29.75R
DE QUEEN       LGT RAIN  62  45  53 NW21G35   29.91R
$$

ARZ056-057-069-182100-
SOUTHEAST ARKANSAS

CITY           SKY/WX    TMP DP  RH WIND       PRES   REMARKS
PINE BLUFF     PTSUNNY   73  52  47 NW26      29.68R
STUTTGART      PTSUNNY   68  54  60 W36G44    29.65R
MONTICELLO     CLOUDY    79  62  56 SW15G26   29.65S

$$






USA.gov is the U.S. government's official web portal to all federal, state and local government web resources and services.